Showing default

NORSAT 2, 42828

Orbit data source: Space-Track

NORSAT 2, 42828 is a payload satellite owned by Statsat (NO) in SSO that was launched on Fri, 14 Jul 2017 UTC via a SOYUZ-2-1A launch vehicle from the Tyuratam Missile And Space Complex (TTMTR). Payload-class satellites include a variety of spacecraft equipped with specific instruments for various scientific and technological missions. These include communications satellites like Starlink; space stations such as the ISS; scientific satellites like the Hubble; Earth observation satellites from companies like Planet Labs, Umbra, and HawkEye 360; GPS; miniature CubeSats for education and research; and military/defense satellites.

Loading next visibility...
Identifier
42828, 2017-042D
Orbit
SSO
Country
Flag of NONO / NOR
Related business
Manufacturer
UTIAS-SFL
Mission
Operational Commercial Communications
Bus & Motor
GNB, Unknown motor
Mass
30 kg wet, 30 kg dry
Launch date (UTC)
2017-07-14 (8 years ago)
Launch vehicle
SOYUZ-2-1A
Launch site
Tyuratam Missile And Space Complex (TTMTR)
Object type
Payload
Rocket body
Debris
Shape & HBR
Box + 2 Pan + 4 Ant, 1.2 m
Radar Cross Section
0.202 m², Medium (>0.1 m² and < 1m²)

Expand to show TLE details & history
Last TLE update: 14 hours ago

TLE from 14 hours ago
0 NORSAT 2
1 42828U 17042D   25340.42161142  .00020872  00000-0  10594-2 0  9993
2 42828  97.3897 152.7212 0011005  12.5132 347.6372 15.16883520458468
Epoch: 2025-12-06T10:07Z
TLE epoch observation values (Epoch: 2025-12-06T10:07:07.226Z)
Latitude
-0.0001°
Longitude
-74.50848°
Altitude
510.941 km
Speed
7.612 km/s
True Right ascension
10h 10m 53s
True Declination
0° 00' 00"
Sunlit
Object was in daylight at epoch
Visualization orbit readout
Latitude
Unknown
Longitude
Unknown
Altitude
Unknown
Speed
Unknown
Apparent Right ascension
Unknown
Apparent Declination
Unknown
Sunlit
N/A
Visualization observer readout
Local Sidereal Time
22:01:27
Azimuth
Unknown
Elevation
Unknown
Doppler factor
Unknown
Orbital elements
Apogee altitude
519.818 km
Perigee altitude
504.653 km
Semi-major axis
6,890.373 km
Eccentricity
0.0011
Inclination
97.3897°
RAAN
152.7212°
Arg. of periapsis
12.5132°
True anomaly
347.61016°
Mean anomaly
347.6372°
Eccentric anomaly
347.62369°
Mean motion
3.79471 °/min
Orbital period
94.87 mins
BSTAR
0.0010594
Loading maneuver chart data...
Computing Atmospheric mass density...
Loading historical data...
Loading historical data...
Loading historical data...
Loading historical data...
Loading historical data...
Loading historical data...
Loading historical data...

Documentation

Showing up to 5 results
|